Temperature
31 33 33 33 33 33 33 33 33 32 32 32 32 32 31 29 29 28 27 26 26 25 24 23 22 21 21 21 20 20 20 20 19 19 18 18 18 18 18 18 18 18 18 17
32 32 33 33 32 32 32 32 32 32 32 31 32 32 32 30 29 28 28 27 26 26 25 23 22 22 21 21 21 21 20 20 20 19 19 18 18 18 18 18 18 18 18 18
31 33 32 32 32 32 32 32 32 32 31 31 32 31 31 31 29 28 28 27 27 26 25 24 23 22 21 21 21 21 21 20 20 19 19 18 18 18 18 18 18 18 18 18
32 32 31 31 32 32 32 33 32 32 31 32 32 32 32 31 30 29 28 27 27 26 25 24 23 23 22 22 21 21 21 20 20 20 19 18 18 18 18 18 18 18 18 18
31 31 31 31 32 32 32 32 32 32 32 32 32 32 32 32 31 30 29 28 27 26 26 25 24 23 22 22 21 21 21 20 20 20 19 19 18 18 18 18 18 18 18 18
31 31 32 32 32 32 31 31 31 31 32 31 31 31 31 32 31 31 30 28 27 26 26 25 24 23 22 22 21 21 21 20 20 20 19 19 18 18 18 18 18 18 18 17
30 31 31 31 31 31 31 31 30 30 30 31 31 31 31 31 31 30 30 28 27 26 25 24 24 23 22 22 22 21 21 20 20 20 19 19 19 18 18 18 18 18 18 18
29 30 31 31 31 31 31 32 30 30 30 31 30 31 32 31 30 29 28 28 27 26 25 25 24 23 22 22 22 21 21 21 20 20 20 19 19 18 18 18 18 18 18 18
30 30 31 31 31 32 31 31 33 32 31 31 31 31 31 31 30 29 28 27 26 26 25 24 24 23 23 22 22 21 21 21 20 20 20 19 19 19 18 18 18 18 18 18
30 29 30 30 31 30 31 32 31 31 29 29 30 31 31 30 30 29 28 27 26 25 25 24 24 23 23 22 22 21 21 21 20 20 20 19 19 19 19 18 18 18 18 18
30 29 30 30 30 30 30 30 31 31 31 30 29 31 31 30 29 29 28 27 26 25 25 24 24 23 22 22 21 21 21 20 20 20 19 19 19 19 19 19 18 18 18 18
29 29 29 30 30 30 31 31 30 30 29 30 30 30 30 29 29 28 28 26 25 25 24 24 23 23 22 22 21 21 20 20 20 20 20 19 19 19 19 18 18 18 18 18
28 28 28 28 29 29 30 30 30 30 30 30 30 30 29 28 28 27 26 25 24 24 24 23 23 22 22 21 21 21 20 20 20 20 20 19 19 19 19 18 18 18 18 18
26 28 28 28 29 29 29 29 29 30 30 30 30 30 29 28 28 27 25 25 24 23 23 23 22 21 21 21 21 20 20 20 20 20 19 19 19 19 19 18 18 18 18 18
26 27 27 28 29 29 29 29 29 29 29 30 30 30 29 28 27 26 25 24 24 23 22 22 21 21 20 20 20 20 20 20 20 19 19 19 19 19 18 18 18 18 18 17
25 26 26 27 28 28 28 28 28 28 29 29 29 29 28 26 25 25 24 24 23 23 22 22 21 21 20 20 20 20 20 20 19 19 19 19 19 19 18 18 18 18 18 17
25 25 25 27 27 27 27 28 28 28 28 29 28 28 26 26 24 24 24 23 23 22 22 21 21 20 20 20 20 20 20 20 19 19 19 19 18 18 18 18 17 17 17 17
23 24 25 26 25 25 27 27 27 27 26 27 26 26 25 24 23 23 23 22 22 21 21 21 21 20 20 20 20 20 19 19 19 19 19 18 18 18 17 17 17 17 17 17
23 23 25 26 25 26 26 25 26 25 25 25 25 24 24 23 23 23 21 21 20 20 20 20 20 20 20 20 19 19 19 19 19 18 18 18 18 17 17 17 17 17 17 16
22 22 24 24 24 25 25 25 24 25 25 24 23 23 23 23 25 24 20 19 19 19 19 19 19 19 19 19 19 19 19 19 18 18 18 18 18 17 17 17 17 16 16 16
22 22 23 24 24 25 24 23 23 24 24 22 22 21 22 22 22 20 19 18 18 18 18 18 18 19 18 18 18 18 18 18 18 18 18 18 17 17 17 17 16 16 16 15
22 23 22 23 23 24 22 23 23 22 21 20 20 20 20 19 19 18 18 17 17 17 18 18 18 18 18 18 18 18 18 18 17 17 17 17 17 17 16 16 16 15 15 15
21 22 23 22 22 20 19 20 19 19 19 19 19 19 18 18 18 17 17 17 17 17 17 17 17 17 17 17 17 17 17 17 16 16 16 16 16 16 16 16 15 15 15 15
20 19 20 20 21 19 19 18 18 18 18 18 18 18 18 17 17 17 16 16 16 16 17 17 17 17 17 17 17 17 16 16 16 16 16 16 16 16 15 15 15 15 15 15
19 19 20 19 20 19 18 17 17 17 17 17 17 17 17 17 16 16 16 16 16 16 16 16 16 16 16 16 16 16 16 16 15 15 15 15 15 15 15 15 14 14 14 14
19 19 19 19 18 18 17 16 16 16 16 16 16 16 16 16 16 15 15 15 15 15 15 15 15 15 15 16 15 15 15 15 15 15 14 14 14 14 14 14 14 14 14 13
Wind_Speed
7 10 11 9 7 4 4 5 5 3 3 6 7 6 6 10 12 12 12 12 12 12 11 11 12 12 11 11 11 11 10 10 8 6 6 5 5 4 4 4 4 5 4 5
10 13 8 5 6 6 7 7 6 4 3 5 6 6 6 9 12 12 12 12 12 12 11 12 12 12 13 12 12 11 11 11 10 7 5 4 4 4 4 3 3 5 5 5
15 8 6 8 10 9 9 8 6 4 4 6 6 7 7 8 10 10 11 11 12 12 12 12 13 13 13 13 13 11 12 11 10 8 6 5 4 4 4 4 4 4 4 4
13 8 8 10 11 11 10 6 5 6 7 5 6 6 5 7 9 10 11 12 12 12 12 12 13 13 13 13 12 12 11 11 10 10 8 7 6 5 4 3 3 3 4 4
11 10 11 12 11 11 7 3 5 7 8 7 6 8 3 6 6 7 9 11 12 12 12 12 12 12 12 12 11 11 11 11 10 10 9 8 6 5 4 3 3 3 3 3
9 8 9 10 8 7 6 6 5 8 10 11 7 8 5 3 3 3 6 8 9 10 11 11 11 11 10 11 11 11 11 10 10 10 9 9 7 6 4 4 4 4 3 3
12 11 9 7 9 10 10 10 9 10 10 10 4 7 5 1 0 2 2 5 7 9 10 11 11 11 11 11 12 12 12 11 11 11 10 9 8 7 7 6 5 4 3 3
15 14 13 10 12 11 14 15 13 11 11 8 7 8 4 1 1 0 1 3 5 8 9 10 11 11 11 11 12 12 12 11 12 11 10 9 9 7 6 6 5 4 4 3
11 12 9 9 9 10 12 14 13 12 12 10 8 6 5 3 2 2 2 3 4 6 8 9 10 11 11 11 12 12 12 11 11 11 10 9 9 8 6 6 6 5 4 4
7 9 9 8 8 5 8 10 9 12 12 12 11 10 7 4 3 2 2 3 4 6 7 8 8 10 10 11 11 11 12 11 11 10 10 8 9 8 7 6 6 5 5 4
9 10 9 10 11 12 9 10 9 10 12 12 12 7 1 2 2 1 1 2 4 5 7 7 7 8 9 10 10 10 10 11 10 10 9 9 9 8 8 7 6 6 5 5
9 9 10 10 5 4 9 11 12 11 10 11 12 6 4 1 0 0 1 2 3 4 5 6 6 7 8 9 9 9 9 9 9 9 9 9 9 8 8 7 6 5 5 5
7 8 10 11 10 8 9 9 10 11 10 11 13 8 5 3 1 1 1 2 3 3 4 5 6 6 7 8 8 8 9 9 8 8 9 8 9 9 8 7 7 6 6 5
5 8 11 12 8 9 10 10 10 12 12 12 12 8 2 0 1 1 1 2 3 3 4 4 5 5 5 7 7 7 8 8 8 8 9 9 8 8 8 7 7 7 6 6
5 9 9 7 5 6 8 10 11 13 13 13 10 8 4 2 2 1 1 2 2 3 3 3 4 4 5 6 6 6 6 6 7 8 8 9 8 7 7 7 6 6 6 6
2 6 8 9 8 8 9 10 11 11 11 11 10 8 1 2 1 1 1 1 1 1 2 2 3 4 5 6 6 6 6 6 7 8 8 8 8 8 7 7 6 6 6 5
4 5 8 10 8 9 13 11 11 10 8 9 10 4 1 1 1 1 1 1 1 1 1 2 3 3 4 5 6 7 6 6 7 8 7 8 8 8 8 7 7 6 6 6
4 6 7 8 8 13 4 2 4 6 5 4 2 1 2 2 2 2 1 2 3 3 3 2 2 3 3 4 5 6 6 6 6 6 7 7 8 8 7 7 6 6 5 5
4 5 7 9 12 10 5 3 4 6 6 3 3 1 2 2 2 2 4 5 5 5 4 3 3 3 3 4 5 7 6 6 6 6 6 7 7 7 8 7 7 6 6 5
5 6 8 9 12 12 4 4 2 5 7 2 1 1 1 2 5 1 5 6 6 6 5 4 3 3 3 4 5 7 7 7 7 7 6 6 6 7 8 8 7 6 6 6
7 7 11 12 11 8 2 1 4 8 2 2 1 1 2 3 5 4 5 6 6 6 5 4 3 2 2 3 5 7 7 8 7 7 7 7 7 7 8 8 7 7 6 5
6 7 8 9 12 7 3 1 3 3 4 2 2 3 4 4 4 4 4 5 5 5 5 4 3 3 2 3 5 6 6 6 6 7 7 7 7 7 7 8 7 7 6 6
4 4 4 4 2 3 3 3 3 4 3 3 3 4 4 4 4 4 4 5 5 5 5 5 4 3 2 3 4 6 5 5 6 6 7 6 6 6 7 8 8 7 7 6
4 2 4 4 3 1 2 2 3 3 3 4 4 4 4 4 4 4 4 5 5 5 5 4 4 3 3 2 3 4 4 5 6 7 6 6 6 6 6 6 6 6 6 6
4 4 6 8 6 3 2 2 4 4 4 4 5 5 4 5 5 4 4 5 5 4 4 4 3 3 3 3 3 3 4 5 6 6 5 5 5 7 6 4 3 4 3 3
7 7 8 7 5 5 5 5 6 6 5 5 5 5 5 4 4 4 4 4 4 4 4 4 3 3 3 3 3 3 3 5 6 6 5 4 5 6 6 6 4 4 3 4
Wind_Direction
204 221 219 214 227 259 237 240 235 222 190 227 238 240 201 189 200 200 199 200 203 206 200 196 197 198 196 195 193 194 195 189 191 194 201 201 203 205 208 215 210 218 223 218
210 222 220 213 201 211 221 235 234 205 190 239 248 245 218 199 205 206 204 204 205 202 197 196 197 198 199 196 195 193 194 193 196 195 203 211 216 214 212 222 213 223 223 218
222 212 185 197 201 213 224 241 244 233 195 217 248 235 212 198 206 207 212 212 209 204 201 197 198 200 200 198 196 196 194 192 198 196 199 201 200 218 206 208 209 217 221 216
224 204 193 208 211 222 227 231 242 227 231 227 238 261 205 195 199 207 211 211 209 205 203 199 197 198 200 198 195 194 192 193 193 196 205 209 215 219 215 212 197 196 210 216
208 203 206 216 218 225 236 206 219 226 242 252 234 264 227 179 209 209 209 211 209 204 203 200 199 197 197 194 191 189 188 191 192 198 202 211 220 217 205 199 190 209 204 215
215 201 219 222 215 212 173 176 197 226 241 245 245 259 256 209 229 219 197 202 207 203 199 196 194 190 190 189 188 185 183 187 191 198 203 210 214 213 208 204 200 208 206 211
209 206 204 205 195 188 203 217 226 228 231 241 217 247 260 286 266 261 209 191 196 196 192 190 188 185 185 186 187 185 183 186 191 198 204 206 209 209 210 214 206 214 214 208
208 208 200 204 218 211 216 230 238 246 245 231 192 240 245 144 118 241 212 185 182 184 183 184 184 184 185 186 187 186 185 188 191 197 201 204 206 212 213 211 218 207 217 220
216 213 189 203 220 230 216 229 244 251 258 260 236 230 225 197 197 180 158 155 163 171 176 180 179 183 185 186 188 189 186 189 193 194 194 198 202 210 211 205 212 215 211 211
231 220 192 184 194 214 242 227 229 240 242 247 242 237 241 225 231 193 165 156 152 163 171 174 177 182 183 183 183 186 187 190 193 193 196 196 197 201 205 209 210 215 212 214
228 223 197 194 211 205 200 212 228 238 246 250 252 239 227 255 264 234 169 153 160 168 170 174 175 180 180 177 174 179 183 188 191 193 194 195 195 197 199 202 206 208 207 203
215 226 217 205 192 250 226 223 221 233 237 246 262 252 103 90 16 130 139 140 148 157 165 167 169 172 175 177 177 177 179 182 186 187 189 191 192 194 196 195 196 194 193 194
200 218 216 206 199 202 214 217 227 237 241 244 249 241 123 104 75 75 114 139 139 147 160 163 162 165 173 175 176 179 182 183 183 183 184 183 187 189 192 190 186 184 184 186
231 225 234 236 221 198 205 209 217 231 237 240 245 252 199 213 314 23 86 148 146 146 154 165 165 169 174 175 175 180 184 182 181 182 182 182 186 188 186 182 180 179 178 179
232 225 229 247 245 226 222 218 217 230 246 253 250 247 266 292 286 313 122 145 154 154 159 166 173 174 177 175 177 180 181 179 180 182 183 181 180 180 179 175 175 173 175 176
233 228 219 227 225 227 233 231 227 233 240 246 250 246 304 350 16 50 91 142 175 189 191 184 184 180 182 183 182 180 183 179 179 183 182 175 173 173 177 179 176 171 171 174
205 215 225 228 213 228 233 231 230 228 235 242 243 247 5 315 324 311 310 310 330 309 258 223 205 202 196 195 190 188 185 179 181 184 182 175 174 175 177 177 174 175 174 176
220 224 227 229 213 233 220 157 228 223 222 238 254 286 300 306 293 305 4 9 342 330 314 283 245 216 206 201 192 190 182 180 182 180 181 181 178 177 176 176 176 176 178 183
221 222 232 231 230 233 199 188 208 217 220 218 225 242 316 332 227 154 57 11 343 328 317 299 271 239 209 201 189 181 182 182 182 181 181 184 182 180 177 178 182 178 177 179
181 221 236 233 241 239 203 145 202 234 215 142 228 248 312 289 248 246 9 347 338 338 330 313 280 240 210 198 187 182 181 182 187 186 180 178 179 179 183 180 182 181 179 180
192 206 227 234 240 239 76 106 201 227 226 64 316 284 277 300 323 331 327 334 338 336 326 313 288 251 220 203 192 190 190 191 189 181 175 177 178 183 182 177 177 177 178 176
226 221 222 232 237 229 65 194 241 342 14 352 318 312 312 318 324 321 327 330 333 337 334 327 312 288 261 223 203 200 201 195 182 176 176 175 179 184 176 172 171 175 175 175
240 276 267 254 258 51 28 1 349 328 316 312 305 316 309 302 308 315 321 325 331 333 336 331 319 303 280 242 221 213 204 188 180 176 175 172 171 173 174 174 172 176 180 185
213 258 259 256 235 320 337 340 338 333 320 309 306 303 296 295 300 305 312 318 326 330 331 331 324 316 304 283 256 232 209 187 181 181 175 169 167 168 169 172 175 180 183 186
259 240 247 252 261 275 272 312 330 332 325 315 306 300 296 294 294 299 302 308 317 324 326 329 325 329 312 296 276 247 210 189 181 176 168 170 173 161 160 159 156 179 173 184
243 251 258 267 269 276 283 305 309 308 309 306 305 307 304 296 291 297 303 311 315 317 320 321 318 314 306 299 285 266 218 191 180 174 168 172 169 161 159 156 144 74 98 99
Height
1505 1503 1501 1499 1499 1500 1502 1505 1507 1506 1506 1508 1508 1509 1510 1517 1520 1523 1526 1529 1532 1535 1538 1540 1542 1544 1546 1547 1548 1550 1551 1552 1554 1556 1557 1558 1559 1559 1560 1560 1560 1560 1561 1562
1503 1501 1497 1498 1501 1503 1504 1506 1506 1506 1507 1508 1507 1507 1507 1512 1516 1519 1522 1526 1529 1532 1535 1537 1539 1541 1543 1544 1546 1547 1549 1551 1552 1554 1555 1556 1557 1558 1558 1559 1558 1559 1559 1560
1500 1496 1498 1502 1503 1504 1503 1505 1504 1506 1507 1507 1507 1508 1506 1508 1513 1517 1520 1522 1525 1528 1531 1534 1536 1538 1540 1542 1543 1545 1547 1548 1550 1552 1554 1555 1555 1556 1557 1557 1557 1557 1558 1559
1496 1496 1500 1501 1501 1501 1505 1499 1502 1506 1509 1507 1508 1513 1503 1503 1508 1512 1515 1518 1521 1524 1528 1530 1533 1535 1537 1539 1541 1543 1545 1546 1548 1549 1551 1553 1554 1555 1555 1555 1556 1556 1556 1557
1495 1496 1499 1500 1498 1498 1499 1499 1502 1504 1506 1508 1506 1510 1502 1500 1504 1506 1510 1513 1517 1520 1523 1526 1529 1532 1534 1537 1539 1540 1542 1544 1545 1547 1549 1550 1552 1553 1554 1554 1554 1554 1555 1556
1491 1495 1495 1494 1496 1498 1500 1503 1504 1503 1503 1518 1508 1512 1509 1498 1502 1502 1505 1510 1513 1517 1520 1523 1526 1529 1531 1534 1536 1538 1539 1541 1543 1545 1546 1548 1549 1550 1552 1552 1553 1553 1554 1554
1497 1494 1494 1495 1497 1500 1500 1506 1516 1519 1518 1515 1504 1510 1506 1497 1499 1501 1503 1507 1510 1513 1516 1520 1523 1525 1528 1530 1533 1535 1536 1538 1540 1542 1544 1545 1547 1548 1549 1550 1551 1552 1553 1553
1498 1499 1491 1492 1493 1495 1496 1498 1514 1523 1519 1508 1509 1509 1499 1496 1500 1503 1504 1506 1508 1510 1513 1516 1519 1522 1525 1527 1530 1532 1534 1535 1537 1539 1541 1543 1544 1546 1547 1547 1549 1549 1550 1551
1489 1493 1486 1489 1490 1490 1494 1494 1488 1499 1505 1510 1503 1499 1496 1496 1498 1501 1502 1504 1506 1508 1511 1514 1517 1519 1522 1524 1526 1529 1530 1532 1534 1536 1538 1539 1541 1543 1544 1545 1546 1547 1547 1549
1484 1493 1486 1489 1491 1492 1489 1488 1494 1500 1517 1521 1509 1504 1499 1496 1496 1498 1500 1502 1505 1507 1509 1512 1514 1517 1519 1521 1523 1526 1528 1530 1532 1533 1535 1537 1538 1539 1541 1542 1543 1544 1545 1546
1484 1491 1490 1489 1491 1490 1494 1494 1493 1495 1497 1512 1516 1505 1489 1493 1495 1496 1499 1502 1504 1506 1508 1510 1512 1515 1517 1519 1521 1522 1525 1527 1529 1530 1532 1534 1535 1537 1538 1539 1540 1541 1542 1543
1486 1486 1490 1487 1486 1487 1486 1488 1492 1502 1505 1501 1504 1501 1490 1493 1494 1497 1499 1502 1504 1505 1507 1509 1511 1513 1515 1517 1519 1520 1522 1524 1526 1528 1529 1531 1532 1534 1535 1536 1537 1538 1539 1540
1487 1489 1498 1497 1495 1491 1488 1488 1488 1489 1494 1498 1503 1499 1490 1493 1496 1498 1500 1502 1503 1505 1506 1508 1509 1511 1513 1515 1517 1519 1520 1522 1523 1525 1527 1528 1530 1531 1533 1534 1535 1536 1537 1538
1489 1486 1490 1493 1487 1483 1489 1489 1489 1490 1493 1496 1495 1492 1489 1492 1495 1497 1500 1502 1503 1504 1506 1507 1508 1510 1511 1513 1514 1516 1518 1519 1521 1522 1524 1525 1527 1529 1530 1531 1533 1534 1535 1536
1488 1487 1486 1484 1482 1482 1485 1487 1488 1490 1488 1490 1488 1488 1489 1492 1495 1498 1500 1501 1503 1504 1505 1506 1507 1508 1509 1511 1512 1514 1516 1517 1518 1520 1521 1523 1525 1527 1528 1529 1531 1532 1532 1534
1489 1488 1488 1489 1485 1485 1487 1486 1486 1487 1486 1486 1487 1488 1490 1493 1496 1498 1500 1501 1501 1502 1503 1504 1505 1506 1507 1508 1509 1511 1513 1514 1516 1517 1519 1520 1523 1524 1526 1527 1529 1530 1530 1531
1488 1490 1492 1489 1486 1489 1492 1485 1484 1485 1484 1485 1487 1489 1493 1495 1497 1499 1499 1500 1501 1501 1502 1503 1503 1504 1505 1506 1507 1509 1510 1512 1514 1516 1517 1518 1520 1522 1523 1525 1527 1528 1528 1529
1492 1492 1489 1487 1494 1503 1486 1483 1484 1485 1487 1488 1489 1492 1494 1496 1498 1499 1500 1500 1500 1501 1501 1501 1502 1502 1503 1504 1505 1506 1508 1510 1512 1513 1515 1516 1518 1520 1521 1523 1524 1525 1526 1527
1493 1493 1488 1487 1491 1488 1486 1486 1486 1488 1489 1490 1492 1494 1495 1496 1496 1497 1499 1499 1500 1499 1499 1499 1500 1500 1501 1501 1502 1503 1505 1507 1509 1510 1511 1513 1515 1517 1518 1520 1521 1522 1523 1524
1493 1493 1490 1490 1493 1493 1484 1485 1489 1490 1491 1492 1493 1495 1495 1495 1491 1493 1498 1498 1498 1498 1497 1497 1497 1497 1498 1498 1499 1500 1501 1502 1504 1506 1508 1510 1512 1514 1516 1516 1518 1519 1520 1521
1490 1493 1491 1490 1491 1482 1485 1488 1490 1494 1491 1494 1494 1496 1496 1495 1496 1498 1497 1497 1496 1496 1495 1495 1495 1495 1495 1496 1496 1497 1497 1498 1501 1503 1505 1506 1508 1509 1511 1512 1514 1516 1517 1518
1487 1486 1490 1488 1491 1489 1490 1489 1490 1492 1494 1495 1496 1496 1497 1497 1497 1497 1496 1495 1494 1494 1493 1492 1492 1492 1492 1493 1494 1494 1495 1496 1498 1499 1501 1502 1504 1506 1507 1509 1510 1513 1514 1515
1488 1488 1484 1487 1489 1493 1494 1495 1496 1496 1496 1496 1496 1496 1496 1496 1495 1495 1495 1494 1493 1492 1491 1490 1490 1489 1489 1490 1491 1491 1492 1494 1495 1496 1497 1498 1500 1501 1503 1505 1506 1508 1510 1511
1491 1493 1491 1491 1489 1494 1495 1496 1496 1496 1496 1496 1496 1496 1495 1494 1494 1493 1493 1492 1491 1490 1489 1488 1487 1487 1487 1487 1488 1489 1489 1490 1492 1492 1493 1494 1495 1497 1499 1501 1503 1505 1506 1507
1491 1493 1491 1491 1492 1494 1495 1496 1496 1496 1496 1495 1494 1494 1493 1493 1492 1492 1491 1490 1489 1488 1487 1486 1485 1484 1484 1485 1485 1485 1485 1486 1487 1488 1489 1490 1491 1492 1495 1497 1499 1502 1503 1504
1493 1493 1492 1489 1493 1494 1495 1496 1496 1495 1494 1494 1493 1492 1491 1491 1490 1490 1489 1488 1488 1486 1484 1483 1482 1481 1482 1482 1481 1481 1482 1482 1483 1484 1485 1487 1488 1489 1491 1494 1496 1498 1499 1500